Tracking 29892 objects as of 21-Nov-2024
HD Live streaming from Space Station
objects crossing your sky now

SUPERVIEW-1 04

Track SUPERVIEW-1 04 now!
10-day predictions


NORAD ID: 43100
Int'l Code: 2018-002B
Perigee: 413.9 km
Apogee: 414.9 km
Inclination: 97.4 °
Period: 92.7 minutes
Semi major axis: 6785 km
RCS: Unknown
Launch date: January 9, 2018
Source: People's Republic of China (PRC)
Launch site: Taiyaun Space Center, China (TSC)
Your satellite tracking list
Your tracking list is empty




NASA's NSSDC Master Catalog

Two Line Element Set (TLE):
1 43100U 18002B   24326.15271542  .00063477  00000-0  10039-2 0  9995
2 43100  97.3641  48.9569 0000717 274.0777  86.0394 15.53252141380842
Source of the keplerian elements: AFSPC